Lid_Strength_Index
8 8 8 8 8 8 9 9 11 10 9 7 6 6 5 5 5 5 4 4 4 4 3 2 2 2 2 1 1 1 1 1 1 1 0 0 1 1 1 1 1 1 1 0
9 8 8 9 8 8 8 8 8 8 9 5 5 5 5 5 5 5 4 4 4 3 3 3 2 2 2 2 1 1 1 1 1 1 1 1 1 1 1 1 1 1 1 1
12 8 9 11 9 8 8 7 7 9 7 5 5 5 5 5 5 5 4 4 3 3 3 2 2 2 2 2 1 1 1 1 1 1 1 1 1 1 1 1 1 1 1 1
12 10 15 8 6 6 7 7 6 6 6 5 5 4 4 4 4 4 4 4 3 3 3 2 2 2 1 1 1 1 1 1 1 1 1 1 1 1 1 1 1 1 1 1
14 13 10 8 7 7 8 8 6 6 6 5 4 4 4 3 3 3 3 3 3 2 2 2 2 1 1 2 1 1 2 1 1 1 1 1 2 2 1 1 1 1 1 1
12 15 16 9 6 5 5 10 5 5 5 5 5 7 6 3 3 3 3 2 3 2 2 2 2 1 2 2 2 2 2 1 1 1 1 1 1 1 1 1 1 1 1 1
12 13 10 6 5 5 11 9 5 5 5 5 6 5 4 3 3 3 3 2 2 2 2 2 2 1 2 2 2 1 1 1 1 1 1 1 1 1 1 1 1 1 1 1
12 13 14 5 5 8 6 4 4 4 4 5 4 3 3 3 2 3 3 2 2 3 3 2 2 2 2 2 1 1 1 1 1 1 1 1 1 1 1 1 2 2 2 2
10 10 4 5 5 4 4 4 4 4 4 4 4 4 3 3 3 3 2 2 2 2 3 2 2 2 2 2 1 1 1 1 1 1 1 1 2 2 2 1 2 2 2 2
10 8 6 5 4 4 3 4 3 3 3 3 4 3 3 3 3 3 2 3 2 2 3 3 2 2 2 1 1 1 1 2 1 1 1 1 1 1 2 2 2 2 2 2
10 7 6 5 4 4 4 3 3 3 3 3 3 3 3 3 3 3 2 2 2 2 3 3 2 2 1 1 1 1 2 2 2 1 1 2 1 1 1 1 2 2 2 1
11 8 8 6 5 4 4 4 4 3 3 3 3 3 3 3 3 3 3 2 2 2 2 2 2 2 1 1 1 1 2 2 2 2 2 2 2 2 10 7 8 9 8 3
8 7 7 6 4 4 4 4 4 3 3 3 3 3 3 3 3 3 2 2 2 2 2 2 2 2 1 1 1 1 2 2 2 2 2 2 2 2 2 5 10 10 8 8
7 8 8 6 5 4 4 3 4 4 3 3 2 2 2 2 3 2 2 2 2 2 2 2 2 2 1 1 1 1 1 6 2 1 1 2 2 2 2 2 2 2 7 6
7 6 7 6 4 4 3 3 3 4 3 3 2 3 3 3 3 2 2 2 2 2 2 2 2 2 1 1 1 1 2 1 1 1 1 2 1 1 1 2 2 2 4 6
7 7 7 7 5 5 5 4 4 4 3 3 3 3 3 2 2 2 2 2 2 3 2 2 2 1 1 1 1 1 1 5 3 1 1 1 1 2 2 2 2 2 2 4
8 8 8 7 6 5 5 5 4 4 4 4 3 2 2 2 2 2 2 1 1 1 1 1 1 1 1 1 1 1 1 1 4 1 2 2 2 2 2 2 2 3 2 4
5 5 5 5 5 5 5 5 5 4 3 3 3 2 3 2 3 2 2 2 2 1 1 1 1 1 1 1 1 1 1 1 2 2 2 2 2 1 2 2 2 2 3 6
4 5 5 5 5 5 5 5 4 3 3 2 2 3 2 2 2 2 2 2 3 3 1 0 6 3 1 2 2 1 1 2 2 2 2 4 2 2 2 2 2 2 3 7
4 5 4 4 4 4 4 4 3 3 2 2 2 3 3 2 2 2 2 3 2 2 1 1 1 1 1 1 6 1 1 1 2 2 2 2 2 2 2 5 2 2 4 5
3 3 4 4 4 3 3 2 3 3 3 3 3 3 3 2 2 2 3 3 2 2 2 6 2 1 1 2 2 1 1 1 2 2 2 2 2 2 2 2 2 2 4 5
4 5 4 3 3 3 2 2 2 2 3 3 3 2 3 3 3 2 2 2 2 11 2 1 1 12 5 12 1 1 1 1 2 2 2 2 2 2 2 2 2 2 2 4
4 4 4 4 4 3 2 3 3 2 3 2 3 3 4 4 2 4 4 2 2 7 1 2 12 15 15 2 1 1 1 1 2 2 2 2 2 2 2 2 2 3 4 4
4 5 4 3 4 4 5 4 4 3 3 3 3 3 3 4 3 3 3 7 9 6 3 4 8 13 15 1 1 1 1 1 1 2 2 7 2 2 3 3 4 4 5 7
5 6 5 4 5 4 4 4 4 3 3 3 3 2 2 2 3 2 2 2 10 5 2 11 11 12 1 1 1 2 2 2 2 2 2 2 3 3 4 5 6 7 8 8
5 5 5 5 4 4 4 3 4 3 3 4 3 2 2 2 2 2 2 4 1 5 1 1 1 1 1 1 1 1 1 2 2 2 2 3 4 4 6 7 8 8 9 9
4 5 4 4 4 4 4 4 5 5 4 3 4 3 2 2 2 2 4 2 1 1 1 1 1 3 1 1 1 1 1 1 4 2 2 3 4 4 6 7 7 9 9 10